[[{"header":{"parameterUnit":"m.s-1","parameterCategory":1,"la1":30.2991,"la2":30.254,"lo1":-89.0895,"lo2":-89.0444,"dy":0.0017,"dx":0.0017,"nx":28,"ny":28,"refTime":"2024-03-17T03:00:00:Z","depth":0,"parameterNumber":2,"parameterNumberName":"U-component_of_WINDS"},"data":[0,0,0,0,0,0,0,0,0,0,0,0,0,0,0,0,0,0,0,0,0,0,0,0,0,0,0,0,0,0,0,0,0,0,0,0,0,0,0,0,0,0,0,0,0,0,0,0,0,0,0,0,0,0,0,0,0,0,-1.598,-1.598,0,-1.5977,-1.5977,-1.5977,-1.5893,-1.5891,-1.5889,-1.5887,-1.5887,-1.5889,-1.5891,0,0,0,0,0,0,0,0,0,0,0,0,0,-1.5917,-1.5919,-1.598,-1.598,-1.598,-1.5977,-1.5977,-1.5977,-1.5894,-1.5891,-1.5889,-1.5886,-1.5886,-1.5889,-1.5891,0,0,0,0,0,0,0,0,0,0,0,0,0,-1.5932,-1.5919,-1.598,-1.5938,-1.5934,-1.5977,-1.5977,-1.5977,-1.5894,-1.5891,-1.5888,-1.5885,-1.5885,-1.5888,-1.5891,-1.5975,0,0,-1.59,-1.5902,0,0,0,0,0,0,0,0,-1.5932,-1.5935,-1.5944,-1.5941,-1.5937,-1.5932,-1.5954,-1.5976,-1.5895,-1.591,-1.5887,-1.5883,-1.5905,-1.5906,-1.5913,-1.5975,-1.5975,-1.5901,-1.5903,-1.5904,-1.5905,0,0,0,0,0,0,0,-1.5931,-1.5934,-1.5979,-1.5945,-1.594,-1.592,-1.5919,-1.5958,-1.5926,-1.5908,-1.5902,-1.5903,-1.5902,-1.591,-1.5912,-1.5975,-1.5901,-1.5903,-1.5905,-1.5906,-1.6106,-1.611,0,0,0,0,0,0,-1.5935,-1.5934,-1.5979,-1.5979,-1.5926,-1.5924,-1.5923,-1.5937,-1.5925,-1.592,-1.5905,-1.5899,-1.5906,-1.5909,-1.5912,-1.6009,-1.5904,-1.5907,-1.5908,-1.6103,-1.6107,-1.6111,0,0,0,0,0,0,-1.5934,-1.594,-1.5979,-1.5955,-1.5958,-1.5929,-1.5946,-1.5939,-1.5946,-1.5923,-1.5917,-1.5919,-1.5904,-1.5907,-1.596,-1.6008,-1.5908,-1.5911,-1.6099,-1.6104,-1.6109,-1.6205,0,0,0,0,0,0,-1.5932,-1.594,-1.5971,-1.5956,-1.596,-1.6027,-1.5949,-1.5941,-1.5951,-1.5943,-1.5934,-1.593,-1.5902,-1.5956,-1.5963,-1.601,-1.5913,-1.6094,-1.6101,-1.6107,-1.6197,-1.6213,-1.6226,0,0,0,0,0,-1.593,-1.5998,-1.5973,-1.5979,-1.5998,-1.603,-1.6032,-1.5997,-1.5956,-1.5987,-1.5972,-1.593,-1.6001,-1.5962,-1.5969,-1.6018,-1.6091,-1.6099,-1.6107,-1.6191,-1.621,-1.6226,0,0,0,0,0,0,-1.602,-1.5996,-1.5967,-1.6032,-1.6033,-1.6015,-1.6054,-1.6018,-1.6033,-1.6024,-1.5981,-1.598,-1.604,-1.6034,-1.599,-1.6099,-1.6039,-1.6049,-1.61,-1.6118,-1.6132,-1.6133,-1.5916,0,0,0,0,0,-1.6047,-1.6074,-1.6052,-1.6111,-1.6113,-1.6084,-1.6096,-1.607,-1.607,-1.607,-1.6059,-1.6062,-1.6085,-1.6101,-1.6121,-1.6196,-1.6193,-1.6233,-1.6248,-1.626,-1.6269,-1.6309,-1.6327,-1.6137,-1.6137,-1.6137,0,0,-1.6104,-1.6094,-1.6114,-1.6129,-1.6127,-1.6157,-1.6085,-1.612,-1.6142,-1.6076,-1.6124,-1.6117,-1.6117,-1.6181,-1.6209,-1.6178,-1.6321,-1.627,-1.6279,-1.6282,-1.6319,-1.6337,-1.6353,-1.6142,-1.6141,-1.614,0,0,-1.6222,-1.6217,-1.6266,-1.6266,-1.6264,-1.6243,-1.6256,-1.6243,-1.6235,-1.6283,-1.6234,-1.6261,-1.6301,-1.6303,-1.631,-1.643,-1.6393,-1.6438,-1.6513,-1.6553,-1.6568,-1.6581,-1.6624,-1.664,-1.6447,-1.6447,-1.6447,0,-1.6293,-1.6336,-1.6296,-1.6334,-1.6343,-1.6284,-1.6334,-1.6336,-1.6341,-1.6349,-1.6314,-1.6364,-1.636,-1.6424,-1.6454,-1.6461,-1.6474,-1.6439,-1.6568,-1.6581,-1.6593,-1.6634,-1.665,-1.6453,-1.6452,-1.6452,-1.6451,0,-1.6423,-1.6454,-1.6494,-1.6499,-1.6512,-1.6556,-1.6525,-1.6543,-1.6515,-1.6499,-1.6549,-1.6543,-1.656,-1.6573,-1.6547,-1.6635,-1.6616,-1.6576,-1.6515,-1.6617,-1.6655,-1.667,-1.6461,-1.6459,-1.6457,-1.6456,0,0,-1.6598,-1.6581,-1.6597,-1.6599,-1.6592,-1.6615,-1.6657,-1.6674,-1.6691,-1.6696,-1.6731,-1.6767,-1.6729,-1.6737,-1.671,-1.6745,-1.6842,-1.6701,-1.67,-1.6728,-1.6939,-1.6969,-1.6988,-1.6817,-1.6819,-1.6822,-1.6939,0,-1.6713,-1.6782,-1.6749,-1.6823,-1.6851,-1.6795,-1.6832,-1.6833,-1.6819,-1.6841,-1.6826,-1.6853,-1.6801,-1.6806,-1.6837,-1.6823,-1.6884,-1.6814,-1.6849,-1.6851,-1.6852,-1.7008,-1.704,-1.7151,-1.6953,-1.6956,-1.6958,0,-1.6856,-1.6867,-1.6944,-1.6933,-1.6943,-1.6977,-1.6989,-1.7011,-1.7011,-1.6999,-1.7008,-1.6973,-1.7015,-1.6954,-1.7011,-1.6964,-1.6977,-1.6972,-1.6976,-1.6978,-1.6911,-1.7015,-1.7185,-1.7202,-1.698,-1.6979,-1.6977,0,-1.6977,-1.7011,-1.7061,-1.7064,-1.7053,-1.7077,-1.7074,-1.707,-1.7083,-1.7094,-1.7102,-1.7119,-1.7128,-1.7142,-1.7114,-1.7072,-1.7175,-1.7112,-1.7167,-1.7168,-1.7191,-1.719,-1.7367,-1.7199,-1.7199,-1.7199,-1.7198,0,-1.7109,-1.7158,-1.7115,-1.7146,-1.72,-1.7161,-1.7216,-1.7206,-1.7204,-1.7233,-1.7187,-1.7215,-1.7175,-1.72,-1.7179,-1.723,-1.7234,-1.7226,-1.722,-1.723,-1.7232,-1.7238,-1.723,-1.7203,-1.7202,-1.7201,-1.72,0,-1.7252,-1.7225,-1.7277,-1.7261,-1.7259,-1.7299,-1.7286,-1.7315,-1.7298,-1.7336,-1.7342,-1.7316,-1.7343,-1.7316,-1.7341,-1.7327,-1.7395,-1.7378,-1.7395,-1.739,-1.7447,-1.7442,-1.7634,-1.7658,-1.7475,-1.7477,-1.7478,0,-1.7338,-1.7375,-1.7363,-1.7379,-1.7378,-1.7404,-1.7416,-1.738,-1.7395,-1.7398,-1.7427,-1.745,-1.7466,-1.7512,-1.7496,-1.7516,-1.7498,-1.7564,-1.7501,-1.7511,-1.75,-1.7498,-1.7502,-1.7577,-1.758,-1.7581,-1.7583,0,-1.7494,-1.7479,-1.7498,-1.7513,-1.7529,-1.7539,-1.7546,-1.7562,-1.7524,-1.7543,-1.757,-1.7583,-1.7609,-1.7632,-1.7647,-1.7644,-1.7608,-1.7603,-1.7617,-1.7628,-1.7637,-1.7633,-1.7431,-1.7599,-1.7597,-1.7596,-1.7595,-1.7594,-1.7612,-1.7642,-1.7639,-1.7662,-1.7663,-1.7671,-1.7697,-1.7683,-1.7704,-1.7722,-1.77,-1.7733,-1.7733,-1.7749,-1.775,-1.7776,-1.7749,-1.7769,-1.7774,-1.7779,-1.7788,-1.7633,-1.7779,-1.7778,-1.7778,-1.7778,-1.7777,0,-1.7766,-1.7761,-1.7783,-1.7793,-1.7812,-1.7775,-1.7781,-1.7799,-1.7828,-1.7831,-1.7848,-1.7879,-1.7902,-1.7888,-1.7908,-1.7932,-1.7916,-1.7938,-1.7936,-1.7936,-1.7811,-1.7798,-1.7951,-1.7951,-1.7951,-1.7951,-1.7951,-1.7951,-1.7848,-1.7897,-1.7882,-1.7932,-1.7927,-1.7958,-1.7965,-1.7972,-1.7974,-1.8011,-1.8029,-1.802,-1.8016,-1.8035,-1.8055,-1.805,-1.806,-1.8089,-1.8079,-1.7962,-1.7945,-1.7929,-1.7916,-1.8091,-1.8092,-1.8201,-1.8202,-1.8203]},{"header":{"parameterUnit":"m.s-1","parameterCategory":1,"la1":30.2991,"la2":30.254,"lo1":-89.0895,"lo2":-89.0444,"dy":0.0017,"dx":0.0017,"nx":28,"ny":28,"refTime":"2024-03-17T03:00:00:Z","depth":0,"parameterNumber":3,"parameterNumberName":"V-component_of_WINDS"},"data":[0,0,0,0,0,0,0,0,0,0,0,0,0,0,0,0,0,0,0,0,0,0,0,0,0,0,0,0,0,0,0,0,0,0,0,0,0,0,0,0,0,0,0,0,0,0,0,0,0,0,0,0,0,0,0,0,0,0,-3.5713,-3.5712,0,-3.5694,-3.5694,-3.5694,-3.5639,-3.5638,-3.5637,-3.5636,-3.5618,-3.5619,-3.5619,0,0,0,0,0,0,0,0,0,0,0,0,0,-3.5701,-3.5702,-3.5713,-3.5712,-3.5712,-3.5694,-3.5694,-3.5694,-3.564,-3.5638,-3.5637,-3.5635,-3.5618,-3.5618,-3.5619,0,0,0,0,0,0,0,0,0,0,0,0,0,-3.5697,-3.5702,-3.5713,-3.5683,-3.568,-3.5694,-3.5694,-3.5694,-3.564,-3.5638,-3.5636,-3.5635,-3.5617,-3.5618,-3.5619,-3.5661,0,0,-3.5622,-3.5623,0,0,0,0,0,0,0,0,-3.5697,-3.5697,-3.5688,-3.5685,-3.5682,-3.5667,-3.5683,-3.5683,-3.564,-3.5655,-3.5636,-3.5634,-3.5636,-3.5635,-3.5636,-3.566,-3.5659,-3.5622,-3.5623,-3.5623,-3.5624,0,0,0,0,0,0,0,-3.5698,-3.5698,-3.5705,-3.5687,-3.5684,-3.5671,-3.5668,-3.5683,-3.5656,-3.5654,-3.565,-3.5648,-3.5634,-3.5635,-3.5635,-3.5659,-3.5622,-3.5623,-3.5624,-3.5624,-3.5715,-3.5717,0,0,0,0,0,0,-3.5702,-3.5698,-3.5706,-3.5705,-3.5685,-3.5672,-3.5669,-3.5674,-3.5655,-3.5651,-3.565,-3.5646,-3.5634,-3.5634,-3.5634,-3.5681,-3.5623,-3.5624,-3.5625,-3.5714,-3.5716,-3.5718,0,0,0,0,0,0,-3.5702,-3.5703,-3.5707,-3.57,-3.57,-3.5674,-3.568,-3.5674,-3.5675,-3.5652,-3.5647,-3.5656,-3.5633,-3.5633,-3.5654,-3.5679,-3.5625,-3.5625,-3.5711,-3.5714,-3.5717,-3.5775,0,0,0,0,0,0,-3.5702,-3.5703,-3.5719,-3.5701,-3.57,-3.5727,-3.5681,-3.5675,-3.5677,-3.5671,-3.5657,-3.5653,-3.5631,-3.5653,-3.5655,-3.568,-3.5626,-3.5709,-3.5713,-3.5716,-3.5771,-3.5779,-3.5787,0,0,0,0,0,-3.5702,-3.5736,-3.572,-3.5721,-3.5719,-3.5729,-3.5728,-3.5703,-3.5679,-3.5694,-3.568,-3.5653,-3.5676,-3.5656,-3.5658,-3.5683,-3.5707,-3.5712,-3.5716,-3.5767,-3.5778,-3.5787,0,0,0,0,0,0,-3.5758,-3.5734,-3.5715,-3.5745,-3.574,-3.572,-3.5738,-3.5715,-3.5716,-3.5711,-3.568,-3.5677,-3.5703,-3.5695,-3.5673,-3.5721,-3.5687,-3.5692,-3.5726,-3.5736,-3.5744,-3.5745,-3.5627,0,0,0,0,0,-3.5774,-3.5784,-3.5762,-3.5791,-3.5789,-3.5764,-3.5767,-3.5748,-3.5741,-3.5739,-3.5725,-3.572,-3.5726,-3.573,-3.5734,-3.5769,-3.5765,-3.5787,-3.5795,-3.5802,-3.5807,-3.5824,-3.5833,-3.5732,-3.5732,-3.5731,0,0,-3.5808,-3.5795,-3.5803,-3.5802,-3.5795,-3.5806,-3.5762,-3.5776,-3.5783,-3.5741,-3.576,-3.575,-3.5742,-3.577,-3.5782,-3.5764,-3.5834,-3.5807,-3.5813,-3.5814,-3.5829,-3.5838,-3.5847,-3.5734,-3.5734,-3.5733,0,0,-3.5873,-3.5865,-3.5888,-3.5882,-3.5872,-3.5855,-3.5861,-3.5844,-3.5836,-3.5855,-3.5823,-3.5831,-3.5842,-3.5837,-3.5836,-3.59,-3.5875,-3.5902,-3.5944,-3.5961,-3.5969,-3.5976,-3.5998,-3.6006,-3.5906,-3.5907,-3.5907,0,-3.5916,-3.593,-3.5902,-3.5917,-3.5917,-3.5879,-3.5901,-3.5897,-3.5889,-3.589,-3.587,-3.5883,-3.5874,-3.5901,-3.5916,-3.5917,-3.5922,-3.5903,-3.597,-3.5977,-3.5983,-3.6003,-3.6012,-3.591,-3.5909,-3.5909,-3.5909,0,-3.5983,-3.5993,-3.6013,-3.6006,-3.6008,-3.6027,-3.6002,-3.6007,-3.5988,-3.5973,-3.5993,-3.5981,-3.5982,-3.5987,-3.5969,-3.601,-3.6,-3.5976,-3.594,-3.5996,-3.6015,-3.6023,-3.5915,-3.5913,-3.5912,-3.5912,0,0,-3.6084,-3.606,-3.6068,-3.6064,-3.605,-3.6058,-3.6075,-3.6075,-3.608,-3.6076,-3.6089,-3.6099,-3.6077,-3.6076,-3.6056,-3.6071,-3.6121,-3.6045,-3.6044,-3.6059,-3.6166,-3.6184,-3.6193,-3.6105,-3.6106,-3.6107,-3.6166,0,-3.6145,-3.6173,-3.6148,-3.618,-3.6189,-3.6152,-3.6167,-3.616,-3.6147,-3.6152,-3.6138,-3.6145,-3.6115,-3.6114,-3.6127,-3.6112,-3.6142,-3.6108,-3.6116,-3.6117,-3.6119,-3.6203,-3.6222,-3.6278,-3.6173,-3.6175,-3.6176,0,-3.6221,-3.622,-3.6253,-3.6236,-3.6239,-3.6252,-3.625,-3.6256,-3.6248,-3.6237,-3.6235,-3.6212,-3.6227,-3.6193,-3.6213,-3.619,-3.6192,-3.6186,-3.6187,-3.6187,-3.6149,-3.6204,-3.6296,-3.6304,-3.6187,-3.6186,-3.6185,0,-3.6291,-3.6297,-3.6317,-3.6315,-3.6296,-3.6307,-3.6299,-3.6289,-3.629,-3.6289,-3.6289,-3.629,-3.629,-3.6291,-3.6268,-3.6245,-3.6291,-3.6255,-3.6282,-3.6283,-3.6293,-3.6293,-3.6386,-3.6295,-3.6295,-3.6295,-3.6295,0,-3.6362,-3.6383,-3.6348,-3.6361,-3.6383,-3.6354,-3.6378,-3.6367,-3.6358,-3.6367,-3.6336,-3.6345,-3.6314,-3.6321,-3.6303,-3.6322,-3.6322,-3.6314,-3.6309,-3.6316,-3.6317,-3.6317,-3.6312,-3.6297,-3.6297,-3.6296,-3.6296,0,-3.6443,-3.6421,-3.644,-3.6421,-3.6416,-3.6434,-3.6417,-3.6427,-3.6412,-3.6424,-3.6426,-3.6402,-3.6407,-3.6384,-3.6386,-3.6374,-3.6403,-3.6391,-3.6405,-3.6402,-3.643,-3.6427,-3.6525,-3.6536,-3.644,-3.6441,-3.6442,0,-3.649,-3.6505,-3.6487,-3.6491,-3.6485,-3.6492,-3.6493,-3.6465,-3.6468,-3.6458,-3.647,-3.6473,-3.6474,-3.6485,-3.6468,-3.6469,-3.6457,-3.6492,-3.6457,-3.6464,-3.6457,-3.6456,-3.6457,-3.6499,-3.65,-3.6501,-3.6502,0,-3.6575,-3.6563,-3.6565,-3.6564,-3.6567,-3.6564,-3.656,-3.6565,-3.6535,-3.654,-3.6545,-3.6546,-3.6547,-3.6551,-3.6548,-3.6541,-3.6516,-3.6513,-3.6519,-3.6526,-3.6534,-3.653,-3.6424,-3.651,-3.651,-3.6509,-3.6508,-3.6508,-3.664,-3.6651,-3.664,-3.6644,-3.6638,-3.6634,-3.6643,-3.6628,-3.6632,-3.6631,-3.6614,-3.6623,-3.6613,-3.6607,-3.6602,-3.6608,-3.6592,-3.6601,-3.6603,-3.6606,-3.6611,-3.6533,-3.6608,-3.6607,-3.6607,-3.6607,-3.6607,0,-3.6722,-3.6713,-3.6717,-3.6712,-3.6715,-3.6691,-3.6685,-3.6689,-3.6697,-3.669,-3.6691,-3.6697,-3.67,-3.6683,-3.6683,-3.6691,-3.668,-3.6692,-3.6691,-3.669,-3.6625,-3.6619,-3.6701,-3.6701,-3.6701,-3.6701,-3.6701,-3.6701,-3.6765,-3.6784,-3.677,-3.6785,-3.6775,-3.6783,-3.6782,-3.6778,-3.6772,-3.678,-3.6782,-3.6771,-3.6759,-3.6759,-3.676,-3.6755,-3.6757,-3.6773,-3.6764,-3.6704,-3.6694,-3.6686,-3.668,-3.6773,-3.6774,-3.6828,-3.6828,-3.6829]}]]